EHI
3 3 3 3 3 3 4 4 4 3 4 5 6 5 4 4 3 3 4 6 6 6 6 6 5 4 4 5 5 4 4 4 4 3 3 3 4 5 5 4 3 3 3
3 3 3 3 3 3 4 5 5 4 4 5 6 7 5 4 3 3 4 5 6 6 6 5 4 3 4 5 4 3 3 4 3 3 3 3 3 4 4 3 3 2 2
3 3 3 3 3 3 4 5 6 5 5 6 6 7 6 4 3 3 3 4 4 4 4 4 3 3 3 4 3 3 3 3 3 3 1 1 3 3 3 3 3 2 2
4 3 3 3 3 3 3 4 5 6 5 5 5 6 6 5 4 3 3 3 3 4 5 4 3 2 3 3 3 3 3 3 3 2 1 1 2 3 3 3 3 3 3
5 4 4 4 4 3 3 3 4 6 5 4 4 5 6 6 4 3 2 2 3 4 5 4 2 1 1 2 3 3 4 4 2 1 0 1 2 3 3 3 3 3 3
6 5 5 6 5 4 3 3 4 5 5 4 3 4 5 4 4 3 2 1 1 3 3 2 0 0 0 1 1 3 4 4 2 0 0 0 2 3 3 3 3 3 3
5 5 5 6 6 5 4 3 3 4 4 3 3 3 4 3 3 3 2 1 0 1 1 0 0 0 0 0 0 1 3 3 1 0 0 1 2 3 3 3 3 3 3
4 4 5 6 6 6 5 4 3 3 3 3 3 3 3 3 3 3 3 2 1 0 0 1 1 0 0 0 0 1 2 1 0 0 0 1 2 3 3 2 2 2 2
3 3 4 6 6 6 6 4 3 3 3 3 3 3 3 3 3 3 4 4 3 1 1 1 1 0 0 0 1 2 2 1 0 0 0 1 2 3 2 1 0 1 1
4 4 4 5 6 6 5 5 4 4 3 3 3 3 3 2 2 3 4 5 4 2 1 1 1 0 0 1 1 1 1 1 0 0 0 1 2 2 1 0 0 0 0
6 5 4 4 4 4 4 4 4 4 3 2 2 2 1 1 1 1 3 5 4 2 0 0 0 0 0 1 1 1 0 0 0 0 0 1 1 1 0 0 0 0 0
6 5 4 3 2 2 3 3 3 2 1 1 1 1 0 0 0 0 1 2 2 1 0 0 1 0 0 0 0 0 0 0 0 0 1 1 1 0 0 1 1 0 0
5 5 4 2 1 1 1 2 1 1 0 0 0 0 0 0 0 0 0 1 1 1 0 0 0 0 0 0 0 0 0 0 0 0 1 2 2 1 1 2 2 1 1
4 4 3 2 1 0 0 0 0 0 0 0 0 0 0 0 0 0 0 0 0 0 0 0 0 0 0 0 0 0 0 0 0 0 1 2 3 3 2 3 4 4 3
3 3 3 2 0 0 0 0 0 0 0 0 0 0 0 0 0 0 0 0 0 0 0 0 0 0 0 0 0 0 0 0 0 0 1 3 4 4 3 4 6 6 5
3 3 3 2 1 0 0 0 0 0 0 0 0 0 0 0 0 0 0 0 1 0 0 0 0 0 0 0 0 0 0 0 0 0 1 2 4 4 5 6 8 7 5
3 3 3 3 2 1 0 0 0 0 0 0 0 0 0 0 0 0 0 0 0 0 0 0 0 0 0 0 0 0 0 0 0 0 0 1 3 5 5 7 9 7 6
4 4 4 5 4 2 1 0 0 0 0 0 0 0 0 0 0 0 0 0 0 0 0 0 0 0 0 0 0 0 0 0 0 0 0 1 2 4 4 6 8 7 6
5 5 6 5 4 3 1 1 1 1 1 0 0 0 0 0 1 1 1 1 1 1 1 1 1 0 0 0 0 0 0 0 0 0 0 0 1 2 3 4 6 6 6
4 4 5 6 4 3 3 3 2 2 2 1 0 0 0 1 3 3 3 3 2 2 2 1 1 0 0 0 0 0 0 0 0 0 0 0 0 1 2 3 4 5 6
5 4 4 5 4 3 3 3 3 3 2 1 1 1 2 4 5 5 5 4 3 3 3 2 0 0 0 0 0 0 0 0 0 0 0 0 0 0 1 1 2 3 3
7 5 4 4 3 2 2 2 2 2 1 1 1 2 5 6 6 6 4 3 3 3 2 1 0 0 0 0 0 0 0 0 0 0 0 0 0 0 0 0 1 1 1
8 6 4 3 2 1 2 3 4 4 2 1 1 3 4 4 4 4 4 4 4 3 2 1 2 2 1 0 0 0 0 0 0 0 0 0 0 0 0 0 0 0 0
6 4 2 2 2 2 4 6 6 6 4 2 1 1 3 2 2 3 4 5 6 5 3 3 4 4 2 2 2 1 0 0 0 0 0 0 0 0 0 0 0 0 0
3 2 1 2 2 3 5 8 8 7 6 4 2 2 3 4 4 4 5 6 6 6 5 4 4 4 3 3 3 2 1 0 0 0 0 0 0 0 0 0 0 0 0
4 3 2 2 3 4 6 9 9 9 8 6 5 4 5 6 6 6 7 6 5 5 5 5 4 3 3 4 4 3 1 0 0 0 0 0 0 0 0 0 0 0 0
Wind_Speed
2 2 7 10 11 12 12 13 13 14 14 14 14 13 13 13 13 14 14 14 14 15 15 16 16 16 15 15 15 16 16 16 16 16 15 15 14 14 14 15 14 11 15
1 3 7 9 11 11 12 12 13 14 14 14 14 13 13 13 13 13 13 14 14 15 15 15 15 15 15 15 15 15 15 15 15 15 15 13 14 13 14 14 13 10 15
3 3 5 9 10 11 11 11 12 13 13 13 13 13 13 13 13 13 14 14 14 15 15 15 15 14 14 15 15 15 15 14 14 14 13 8 10 12 13 13 13 14 14
3 3 5 9 10 10 11 11 12 12 12 12 12 12 12 13 13 14 14 14 15 15 15 15 15 14 14 14 14 14 13 13 13 13 7 6 7 11 12 13 13 13 13
4 3 5 9 10 10 10 11 12 12 12 12 12 12 13 13 14 14 14 14 14 15 15 15 14 14 14 13 13 13 12 12 13 10 6 6 5 10 12 12 12 12 12
4 3 4 9 9 9 9 10 10 11 12 12 12 12 12 13 14 14 14 14 14 14 13 13 13 13 13 12 12 12 12 12 10 7 6 6 5 9 12 12 12 11 11
3 3 4 8 8 9 9 10 10 11 11 11 12 12 12 12 13 13 13 13 13 12 12 12 12 12 12 11 11 11 12 12 7 6 5 5 5 9 11 11 11 11 10
3 3 3 7 8 9 10 10 10 10 11 11 11 11 11 11 11 12 12 11 11 11 11 10 10 10 10 10 10 10 11 10 8 6 5 5 6 8 9 10 10 10 10
4 4 4 4 5 8 9 9 9 10 10 10 10 10 10 10 10 10 9 10 10 10 9 9 9 9 9 9 9 9 10 9 6 4 5 4 6 8 9 9 9 9 9
4 3 3 4 4 4 4 7 8 9 9 9 9 9 9 9 9 9 7 8 8 8 8 8 8 8 8 8 8 8 9 8 5 4 3 4 7 8 8 8 8 9 9
2 2 2 3 3 3 3 4 5 6 7 6 6 7 6 4 4 4 6 7 7 7 6 7 7 7 7 7 7 7 6 3 4 3 2 5 7 8 8 8 8 8 8
1 0 1 1 2 2 2 3 3 3 4 4 3 4 3 3 3 3 5 5 5 5 5 6 6 6 5 3 4 5 2 3 3 2 3 6 7 7 8 8 8 8 8
2 2 1 1 1 1 2 2 2 2 2 3 3 3 3 3 2 3 2 2 3 4 3 4 4 3 2 2 2 2 2 2 2 2 3 6 7 7 7 8 8 8 8
2 2 2 1 1 1 1 2 2 1 1 1 2 2 2 1 2 1 1 1 2 1 2 2 2 2 2 2 2 2 2 2 2 2 3 6 6 7 7 8 8 8 8
3 3 3 3 2 2 1 1 1 1 1 1 1 1 1 1 1 1 1 1 1 1 1 2 2 1 1 1 1 2 2 2 3 3 2 5 6 6 7 8 8 8 8
4 4 3 3 3 2 2 1 1 1 1 1 0 0 1 1 1 1 1 1 1 1 1 1 1 1 1 1 1 0 1 2 3 3 3 3 5 6 7 8 8 8 9
4 4 4 4 3 3 2 2 1 1 1 1 1 0 1 1 1 1 1 1 1 1 1 1 1 1 1 1 1 0 1 1 2 3 3 2 3 5 7 7 8 8 8
3 3 4 4 4 3 2 2 1 1 1 1 1 1 1 2 2 2 1 0 0 1 1 1 1 1 1 1 0 0 0 1 2 3 2 2 2 3 4 7 7 8 8
4 4 3 3 4 4 3 2 1 1 1 1 1 1 1 1 2 2 1 1 1 1 1 0 1 1 1 1 0 0 0 1 2 2 3 3 3 2 2 4 6 7 8
3 3 4 3 3 3 2 1 1 1 0 0 1 1 1 1 2 2 1 1 1 1 1 1 1 1 1 0 1 1 1 0 1 1 2 2 2 3 3 3 3 4 6
3 3 4 4 3 3 2 2 1 1 0 0 1 1 1 1 2 2 1 1 1 1 1 1 1 1 1 1 1 2 2 1 0 1 1 1 2 3 3 3 3 3 3
4 4 4 4 4 3 2 2 2 1 1 1 0 1 1 2 2 2 2 1 1 1 1 1 1 1 0 1 1 1 1 2 2 1 0 1 2 2 2 3 3 3 3
5 6 5 4 4 3 3 2 2 2 1 1 0 1 1 2 2 2 3 2 2 2 2 2 2 2 1 0 1 2 2 1 1 1 1 1 0 1 1 2 3 3 4
7 6 5 5 4 3 4 3 3 2 2 2 2 1 1 1 2 2 3 3 2 2 2 2 2 2 2 1 1 1 1 2 1 1 1 1 1 0 0 1 1 2 2
7 6 5 4 4 4 4 4 4 2 2 1 1 1 1 1 2 2 2 2 2 2 2 2 2 2 2 2 2 1 1 1 1 2 1 1 1 1 1 0 1 1 1
6 5 5 4 4 3 4 4 4 4 3 2 2 2 2 1 1 2 2 2 2 2 2 2 2 2 2 2 2 1 2 1 2 2 2 1 1 1 1 1 1 1 0
Wind_Direction
2 13 68 74 76 79 83 90 95 99 102 104 107 107 105 105 106 107 107 110 111 112 113 113 113 112 113 114 113 114 114 116 118 118 118 119 120 120 118 116 114 116 120
48 45 77 79 79 80 82 88 95 101 102 102 104 105 104 103 105 107 109 110 111 112 113 114 114 113 113 113 113 114 115 116 117 118 119 120 121 120 119 119 118 121 124
55 49 75 78 81 82 83 85 94 100 101 100 100 102 101 102 105 106 108 109 110 112 113 114 113 113 113 110 110 113 116 116 117 116 113 112 119 121 121 122 122 123 123
71 64 81 82 81 84 84 88 93 97 99 99 100 102 103 103 103 105 105 106 107 108 110 110 109 108 110 110 109 111 114 114 115 112 106 111 119 125 124 126 126 127 125
68 65 89 88 84 84 85 91 95 97 100 99 100 103 105 105 105 104 104 104 104 105 106 106 105 105 107 109 111 112 112 114 113 108 105 105 112 129 130 129 130 131 129
64 62 88 91 89 88 90 94 97 98 99 97 97 104 105 106 105 105 103 103 102 104 106 106 105 105 108 110 112 113 111 113 107 103 104 107 116 132 134 134 133 133 134
67 50 78 93 90 91 96 96 95 96 96 95 95 99 99 101 103 105 105 104 103 102 103 104 105 107 108 109 110 115 115 115 108 107 107 110 120 132 134 133 134 133 135
76 55 61 91 90 95 102 101 99 97 96 96 95 95 95 97 97 102 104 105 104 102 101 103 105 107 108 106 110 114 119 120 117 117 115 118 128 131 134 133 137 137 138
64 58 43 50 72 96 101 102 102 101 99 96 95 94 93 91 93 99 98 104 103 101 101 104 105 106 108 107 112 119 123 123 117 120 127 126 135 136 138 139 141 144 144
58 51 46 45 48 56 74 97 105 103 101 98 97 95 91 88 85 86 85 99 101 101 98 98 99 102 106 110 113 121 124 118 117 120 124 140 144 145 143 144 145 148 148
80 43 47 54 51 54 63 86 93 100 95 91 87 86 75 60 60 72 79 87 93 96 95 97 98 98 100 106 108 117 118 110 123 127 136 150 153 154 152 151 151 152 151
178 191 64 80 74 57 67 60 51 63 61 61 63 59 53 54 50 57 67 77 83 83 84 90 88 87 85 89 100 102 107 124 133 144 157 164 166 166 163 161 161 161 161
194 192 165 144 98 83 63 66 56 53 49 53 62 57 51 48 47 46 46 50 53 59 56 61 60 59 73 89 101 112 129 136 146 162 171 178 179 177 171 169 171 172 170
178 200 189 173 136 116 97 80 73 65 52 45 50 53 58 54 46 47 46 36 44 48 48 49 61 56 68 91 120 133 148 155 161 170 184 185 182 183 180 177 180 178 178
190 205 200 181 172 159 128 113 105 111 103 65 43 39 97 98 67 55 47 48 44 53 54 41 49 56 63 68 107 141 165 174 177 180 187 193 191 194 191 189 187 185 187
203 206 193 187 185 166 155 150 144 146 138 107 89 276 131 126 101 76 45 42 37 47 66 67 49 45 35 65 68 147 182 183 184 185 185 197 199 201 203 201 196 195 198
196 190 184 187 177 173 175 177 169 167 145 145 183 193 151 141 132 118 69 35 18 57 71 69 45 47 50 64 64 76 181 183 181 190 188 192 206 214 213 210 207 203 204
175 178 188 184 163 170 173 160 163 162 158 163 166 165 173 164 154 144 148 217 16 72 78 71 55 50 42 53 53 6 147 171 189 190 192 200 205 217 220 216 216 215 215
176 173 172 163 159 164 161 157 165 150 153 160 155 173 184 173 163 161 171 194 135 93 81 68 66 90 44 8 356 41 114 193 204 199 201 210 212 216 223 227 224 223 222
173 168 164 156 158 148 135 117 80 74 89 127 169 206 193 171 165 159 162 155 129 114 97 85 70 73 100 18 16 38 23 251 197 196 207 208 212 221 226 235 237 243 240
169 172 172 165 163 145 136 144 141 195 206 241 231 222 206 193 181 163 163 128 125 145 179 152 117 65 48 83 78 28 14 26 350 239 213 211 225 227 226 230 232 237 245
184 187 181 178 171 169 164 156 151 145 164 208 273 272 226 202 197 185 177 176 166 156 146 143 135 115 59 109 130 107 11 360 6 5 247 212 223 213 227 235 228 228 238
195 195 195 191 183 180 165 122 89 66 41 29 309 270 255 213 197 196 193 191 190 176 186 192 169 168 183 168 128 141 149 225 310 356 21 35 179 197 236 250 238 236 237
201 197 194 188 184 181 165 158 158 171 202 214 215 229 267 244 216 206 199 194 195 188 195 204 175 171 166 184 179 167 174 169 162 309 358 21 35 42 242 261 266 251 242
193 189 191 187 190 183 174 174 171 191 209 216 185 227 261 275 249 226 208 198 198 200 203 195 167 174 174 177 178 167 157 138 157 179 261 334 22 9 357 324 302 286 269
183 180 178 182 199 190 182 179 183 195 200 205 221 229 253 268 267 248 217 205 203 202 205 202 188 183 188 185 179 167 162 170 190 181 207 249 295 332 9 28 354 316 325